User: anonymous   Login
Location: Unspecified
(0.0000°N, 0.0000°E)
Time: 19:41:51
(UTC+00:00)
Language:

PROBA 2 - Orbit

View from above orbital plane
View from above orbital plane
View from above satellite
View from above satellite

Ground track
Ground track

The orbit data is extracted from the following two-line orbital elements,

1 36037U 09059B   18108.62293965  .00000006  00000-0  12259-4 0  9991
2 36037  98.2443 302.1052 0014584 113.7737 246.4991 14.53035379448488
Epoch (UTC): 18 April 2018 14:57:01
Eccentricity: 0.0014584
inclination: 98.2443°
perigee height: 705 km
apogee height: 726 km
right ascension of ascending node: 302.1052°
argument of perigee: 113.7737°
revolutions per day: 14.53035379
mean anomaly at epoch: 246.4991°
orbit number at epoch: 44848

The dashed part of the orbit path shows where the satellite is in the earth's shadow,  

DLR